Back to catalog

STARLINK-11185

AliveCommunicationsVLEO
NORAD 62588·PAYLOAD·🇺🇸 United States

Launched Jan 13, 2025 from Cape Canaveral Space Force Station

Loading…

Next Passes (next 24 hours)

TLE

FreshSource: CelesTrak SupGP

Epoch: Sep 14, 2026, 15:09 UTC

1 62588C 25008B   26257.63173611 -.00027705  00000+0 -21531-3 0  2578
2 62588  43.0006  67.0430 0001678 275.9283  48.1672 15.70838782    10

Track STARLINK-11185 in real time with AllMySat

Download on the App Store